Time,TemperatureF,DewpointF,PressureIn,WindDirection,WindDirectionDegrees,WindSpeedMPH,WindSpeedGustMPH,Humidity,HourlyPrecipIn,Conditions,Clouds,dailyrainin,SoftwareType,DateUTC
2013-07-03 00:00:00,58.7,51.5,30.09,NE,51,0.0,1.0,77,0.00,,CLR,0.00,VWS V13.01,2013-07-03 04:00:00,
2013-07-03 00:01:00,58.6,51.4,30.09,NE,51,0.0,1.0,77,0.00,,CLR,0.00,VWS V13.01,2013-07-03 04:01:00,
2013-07-03 00:02:00,58.6,51.4,30.09,NE,51,0.0,1.0,77,0.00,,CLR,0.00,VWS V13.01,2013-07-03 04:02:00,
2013-07-03 00:03:00,58.6,51.4,30.09,NE,51,0.0,1.0,77,0.00,,CLR,0.00,VWS V13.01,2013-07-03 04:03:00,
2013-07-03 00:04:00,58.6,51.8,30.09,NE,51,0.0,1.0,78,0.00,,CLR,0.00,VWS V13.01,2013-07-03 04:04:00,
2013-07-03 00:09:00,58.5,51.7,30.09,NE,51,0.0,1.0,78,0.00,,CLR,0.00,VWS V13.01,2013-07-03 04:09:00,
2013-07-03 00:14:00,58.4,51.6,30.09,NE,51,0.0,1.0,78,0.00,,CLR,0.00,VWS V13.01,2013-07-03 04:14:00,
2013-07-03 00:19:00,58.3,51.5,30.09,NE,49,0.0,2.0,78,0.00,,CLR,0.00,VWS V13.01,2013-07-03 04:19:00,
2013-07-03 00:24:00,58.1,51.3,30.09,NE,49,0.0,0.0,78,0.00,,CLR,0.00,VWS V13.01,2013-07-03 04:24:00,
2013-07-03 00:29:00,58.1,51.6,30.09,NE,49,0.0,1.0,79,0.00,,CLR,0.00,VWS V13.01,2013-07-03 04:29:00,
2013-07-03 00:31:00,58.1,51.6,30.09,NE,49,1.0,1.0,79,0.00,,CLR,0.00,VWS V13.01,2013-07-03 04:31:00,
2013-07-03 00:34:00,58.1,51.6,30.09,NE,49,0.0,1.0,79,0.00,,CLR,0.00,VWS V13.01,2013-07-03 04:34:00,
2013-07-03 00:39:00,58.1,52.0,30.09,NE,49,0.0,1.0,80,0.00,,CLR,0.00,VWS V13.01,2013-07-03 04:39:00,
2013-07-03 00:44:00,58.0,51.9,30.09,NE,49,0.0,1.0,80,0.00,,CLR,0.00,VWS V13.01,2013-07-03 04:44:00,
2013-07-03 00:45:00,58.0,51.9,30.09,NE,49,0.0,1.0,80,0.00,,CLR,0.00,VWS V13.01,2013-07-03 04:45:00,
2013-07-03 00:46:00,58.0,51.9,30.09,NE,49,0.0,1.0,80,0.00,,CLR,0.00,VWS V13.01,2013-07-03 04:46:00,
2013-07-03 00:51:00,57.9,51.8,30.09,NE,49,1.0,1.0,80,0.00,,CLR,0.00,VWS V13.01,2013-07-03 04:51:00,
2013-07-03 00:53:00,57.8,51.7,30.09,NE,49,0.0,2.0,80,0.00,,CLR,0.00,VWS V13.01,2013-07-03 04:53:00,
2013-07-03 00:58:00,57.7,51.6,30.09,NE,49,0.0,1.0,80,0.00,,CLR,0.00,VWS V13.01,2013-07-03 04:58:00,
2013-07-03 01:03:00,57.6,51.5,30.09,NE,49,0.0,1.0,80,0.00,,CLR,0.00,VWS V13.01,2013-07-03 05:03:00,
2013-07-03 01:08:00,57.6,51.5,30.09,NE,49,0.0,1.0,80,0.00,,CLR,0.00,VWS V13.01,2013-07-03 05:08:00,
2013-07-03 01:09:00,57.5,51.4,30.09,NE,49,1.0,1.0,80,0.00,,CLR,0.00,VWS V13.01,2013-07-03 05:09:00,
2013-07-03 01:14:00,57.6,51.5,30.09,NE,49,0.0,1.0,80,0.00,,CLR,0.00,VWS V13.01,2013-07-03 05:14:00,
2013-07-03 01:19:00,57.5,51.4,30.09,NE,49,0.0,2.0,80,0.00,,CLR,0.00,VWS V13.01,2013-07-03 05:19:00,
2013-07-03 01:24:00,57.5,51.4,30.09,NE,49,0.0,1.0,80,0.00,,CLR,0.00,VWS V13.01,2013-07-03 05:24:00,
2013-07-03 01:29:00,57.4,51.3,30.09,NE,49,0.0,1.0,80,0.00,,CLR,0.00,VWS V13.01,2013-07-03 05:29:00,
2013-07-03 01:34:00,57.3,51.2,30.09,NE,49,0.0,1.0,80,0.00,,CLR,0.00,VWS V13.01,2013-07-03 05:34:00,
2013-07-03 01:39:00,57.3,51.2,30.08,NE,49,0.0,1.0,80,0.00,,CLR,0.00,VWS V13.01,2013-07-03 05:39:00,
2013-07-03 01:44:00,57.2,51.1,30.08,NE,49,1.0,1.0,80,0.00,,CLR,0.00,VWS V13.01,2013-07-03 05:44:00,
2013-07-03 01:49:00,57.2,51.4,30.09,NE,49,1.0,1.0,81,0.00,,CLR,0.00,VWS V13.01,2013-07-03 05:49:00,
2013-07-03 01:54:00,57.1,51.3,30.09,NE,49,0.0,1.0,81,0.00,,CLR,0.00,VWS V13.01,2013-07-03 05:54:00,
2013-07-03 01:57:00,57.0,51.6,30.09,NE,49,0.0,1.0,82,0.00,,CLR,0.00,VWS V13.01,2013-07-03 05:57:00,
2013-07-03 01:58:00,57.0,51.6,30.09,NE,49,0.0,1.0,82,0.00,,CLR,0.00,VWS V13.01,2013-07-03 05:58:00,
2013-07-03 02:03:00,56.9,51.5,30.09,NE,49,1.0,1.0,82,0.00,,CLR,0.00,VWS V13.01,2013-07-03 06:03:00,
2013-07-03 02:09:00,56.8,51.7,30.09,NE,49,0.0,1.0,83,0.00,,CLR,0.00,VWS V13.01,2013-07-03 06:09:00,
2013-07-03 02:13:00,56.8,51.7,30.09,NE,49,0.0,2.0,83,0.00,,CLR,0.00,VWS V13.01,2013-07-03 06:13:00,
2013-07-03 02:16:00,56.7,51.6,30.09,NE,49,0.0,2.0,83,0.00,,CLR,0.00,VWS V13.01,2013-07-03 06:16:00,
2013-07-03 02:17:00,56.7,51.6,30.09,NE,49,0.0,1.0,83,0.00,,CLR,0.00,VWS V13.01,2013-07-03 06:17:00,
2013-07-03 02:23:00,56.5,51.7,30.08,NE,49,1.0,1.0,84,0.00,,CLR,0.00,VWS V13.01,2013-07-03 06:23:00,
2013-07-03 02:24:00,56.5,51.7,30.08,NE,49,0.0,1.0,84,0.00,,CLR,0.00,VWS V13.01,2013-07-03 06:24:00,
2013-07-03 02:30:00,56.4,51.6,30.08,NE,49,1.0,1.0,84,0.00,,CLR,0.00,VWS V13.01,2013-07-03 06:30:00,
2013-07-03 02:31:00,56.4,51.6,30.08,NE,49,1.0,1.0,84,0.00,,CLR,0.00,VWS V13.01,2013-07-03 06:31:00,
2013-07-03 02:32:00,56.4,51.6,30.08,NE,49,0.0,2.0,84,0.00,,CLR,0.00,VWS V13.01,2013-07-03 06:32:00,
2013-07-03 02:37:00,56.3,51.9,30.08,NE,49,0.0,2.0,85,0.00,,CLR,0.00,VWS V13.01,2013-07-03 06:37:00,
2013-07-03 02:42:00,56.3,51.9,30.08,NE,49,1.0,2.0,85,0.00,,CLR,0.00,VWS V13.01,2013-07-03 06:42:00,
2013-07-03 02:43:00,56.3,51.9,30.08,NE,49,1.0,2.0,85,0.00,,CLR,0.00,VWS V13.01,2013-07-03 06:43:00,
2013-07-03 02:48:00,56.2,51.8,30.08,NE,49,1.0,1.0,85,0.00,,CLR,0.00,VWS V13.01,2013-07-03 06:48:00,
2013-07-03 02:54:00,56.2,52.1,30.08,NE,49,0.0,2.0,86,0.00,,CLR,0.00,VWS V13.01,2013-07-03 06:54:00,
2013-07-03 02:55:00,56.2,52.1,30.08,NE,49,1.0,2.0,86,0.00,,CLR,0.00,VWS V13.01,2013-07-03 06:55:00,
2013-07-03 03:00:00,56.2,52.1,30.08,NE,49,1.0,2.0,86,0.00,,CLR,0.00,VWS V13.01,2013-07-03 07:00:00,
2013-07-03 03:05:00,56.1,52.0,30.08,NE,49,0.0,1.0,86,0.00,,CLR,0.00,VWS V13.01,2013-07-03 07:05:00,
2013-07-03 03:10:00,56.1,52.0,30.08,NE,49,1.0,1.0,86,0.00,,CLR,0.00,VWS V13.01,2013-07-03 07:10:00,
2013-07-03 03:15:00,56.0,51.9,30.08,NE,42,0.0,2.0,86,0.00,,CLR,0.00,VWS V13.01,2013-07-03 07:15:00,
2013-07-03 03:16:00,56.0,51.9,30.08,NE,42,0.0,2.0,86,0.00,,CLR,0.00,VWS V13.01,2013-07-03 07:16:00,
2013-07-03 03:22:00,56.0,51.9,30.08,NE,40,0.0,2.0,86,0.00,,CLR,0.00,VWS V13.01,2013-07-03 07:22:00,
2013-07-03 03:27:00,56.0,51.9,30.08,NE,38,0.0,2.0,86,0.00,,CLR,0.00,VWS V13.01,2013-07-03 07:27:00,
2013-07-03 03:33:00,56.0,51.9,30.07,NE,38,0.0,1.0,86,0.00,,CLR,0.00,VWS V13.01,2013-07-03 07:33:00,
2013-07-03 03:38:00,56.1,52.0,30.08,NE,38,0.0,1.0,86,0.00,,CLR,0.00,VWS V13.01,2013-07-03 07:38:00,
2013-07-03 03:39:00,56.2,52.1,30.08,NE,38,0.0,1.0,86,0.00,,CLR,0.00,VWS V13.01,2013-07-03 07:39:00,
2013-07-03 03:44:00,56.3,52.2,30.07,NE,38,0.0,0.0,86,0.00,,CLR,0.00,VWS V13.01,2013-07-03 07:44:00,
2013-07-03 03:50:00,56.4,52.0,30.07,NE,38,0.0,0.0,85,0.00,,CLR,0.00,VWS V13.01,2013-07-03 07:50:00,
2013-07-03 03:51:00,56.4,52.3,30.07,NE,38,0.0,0.0,86,0.00,,CLR,0.00,VWS V13.01,2013-07-03 07:51:00,
2013-07-03 03:56:00,56.5,52.0,30.07,NE,38,0.0,0.0,85,0.00,,CLR,0.00,VWS V13.01,2013-07-03 07:56:00,
2013-07-03 04:01:00,56.5,52.0,30.07,NNE,23,0.0,0.0,85,0.00,,CLR,0.00,VWS V13.01,2013-07-03 08:01:00,
2013-07-03 04:06:00,56.5,52.0,30.07,NNE,22,0.0,0.0,85,0.00,,CLR,0.00,VWS V13.01,2013-07-03 08:06:00,
2013-07-03 04:10:00,56.5,52.0,30.07,NNE,20,0.0,0.0,85,0.00,,CLR,0.00,VWS V13.01,2013-07-03 08:10:00,
2013-07-03 04:14:00,56.4,52.0,30.07,NNE,19,0.0,0.0,85,0.00,,CLR,0.00,VWS V13.01,2013-07-03 08:14:00,
2013-07-03 04:19:00,56.3,52.2,30.07,NNE,15,0.0,0.0,86,0.00,,CLR,0.00,VWS V13.01,2013-07-03 08:19:00,
2013-07-03 04:20:00,56.3,52.2,30.07,NNE,15,0.0,0.0,86,0.00,,CLR,0.00,VWS V13.01,2013-07-03 08:20:00,
2013-07-03 04:25:00,56.3,52.2,30.07,NNE,13,0.0,0.0,86,0.00,,CLR,0.00,VWS V13.01,2013-07-03 08:25:00,
2013-07-03 04:30:00,56.2,52.1,30.07,North,355,0.0,3.0,86,0.00,,CLR,0.00,VWS V13.01,2013-07-03 08:30:00,
2013-07-03 04:35:00,56.1,52.0,30.07,North,5,0.0,3.0,86,0.00,,CLR,0.00,VWS V13.01,2013-07-03 08:35:00,
2013-07-03 04:39:00,56.0,51.9,30.07,North,5,0.0,3.0,86,0.00,,CLR,0.00,VWS V13.01,2013-07-03 08:39:00,
2013-07-03 04:44:00,55.9,51.8,30.07,North,5,1.0,2.0,86,0.00,,CLR,0.00,VWS V13.01,2013-07-03 08:44:00,
2013-07-03 04:45:00,55.9,51.8,30.07,NNE,13,1.0,2.0,86,0.00,,CLR,0.00,VWS V13.01,2013-07-03 08:45:00,
2013-07-03 04:50:00,55.8,52.0,30.07,North,11,0.0,2.0,87,0.00,,CLR,0.00,VWS V13.01,2013-07-03 08:50:00,
2013-07-03 04:54:00,55.7,51.9,30.07,North,9,0.0,2.0,87,0.00,,CLR,0.00,VWS V13.01,2013-07-03 08:54:00,
2013-07-03 04:55:00,55.6,51.8,30.07,North,9,0.0,2.0,87,0.00,,CLR,0.00,VWS V13.01,2013-07-03 08:55:00,
2013-07-03 05:00:00,55.5,51.7,30.07,North,5,2.0,3.0,87,0.00,,CLR,0.00,VWS V13.01,2013-07-03 09:00:00,
2013-07-03 05:06:00,55.4,51.3,30.07,NNE,13,0.0,3.0,86,0.00,,CLR,0.00,VWS V13.01,2013-07-03 09:06:00,
2013-07-03 05:11:00,55.3,51.2,30.08,NNE,26,0.0,3.0,86,0.00,,CLR,0.00,VWS V13.01,2013-07-03 09:11:00,
2013-07-03 05:16:00,55.3,51.2,30.07,NNE,26,1.0,2.0,86,0.00,,CLR,0.00,VWS V13.01,2013-07-03 09:16:00,
2013-07-03 05:21:00,55.2,51.1,30.07,NNE,28,0.0,2.0,86,0.00,,CLR,0.00,VWS V13.01,2013-07-03 09:21:00,
2013-07-03 05:26:00,55.1,51.0,30.08,North,5,0.0,2.0,86,0.00,,CLR,0.00,VWS V13.01,2013-07-03 09:26:00,
2013-07-03 05:32:00,55.0,50.9,30.08,North,5,0.0,2.0,86,0.00,,CLR,0.00,VWS V13.01,2013-07-03 09:32:00,
2013-07-03 05:37:00,55.0,50.9,30.08,North,5,0.0,0.0,86,0.00,,CLR,0.00,VWS V13.01,2013-07-03 09:37:00,
2013-07-03 05:41:00,54.9,50.8,30.08,North,5,0.0,1.0,86,0.00,,CLR,0.00,VWS V13.01,2013-07-03 09:41:00,
2013-07-03 05:46:00,54.9,50.8,30.09,North,5,0.0,1.0,86,0.00,,CLR,0.00,VWS V13.01,2013-07-03 09:46:00,
2013-07-03 05:49:00,54.8,50.7,30.09,North,5,0.0,0.0,86,0.00,,CLR,0.00,VWS V13.01,2013-07-03 09:49:00,
2013-07-03 05:50:00,54.8,50.7,30.09,North,5,0.0,0.0,86,0.00,,CLR,0.00,VWS V13.01,2013-07-03 09:50:00,
2013-07-03 05:55:00,54.7,50.9,30.09,North,5,0.0,0.0,87,0.00,,CLR,0.00,VWS V13.01,2013-07-03 09:55:00,
2013-07-03 06:00:00,54.7,50.9,30.09,North,5,0.0,1.0,87,0.00,,CLR,0.00,VWS V13.01,2013-07-03 10:00:00,
2013-07-03 06:04:00,54.6,50.8,30.09,North,5,1.0,1.0,87,0.00,,CLR,0.00,VWS V13.01,2013-07-03 10:04:00,
2013-07-03 06:06:00,54.6,50.8,30.09,North,5,0.0,1.0,87,0.00,,CLR,0.00,VWS V13.01,2013-07-03 10:06:00,
2013-07-03 06:11:00,54.5,50.7,30.10,North,5,0.0,1.0,87,0.00,,CLR,0.00,VWS V13.01,2013-07-03 10:11:00,
2013-07-03 06:16:00,54.5,50.7,30.10,North,5,0.0,1.0,87,0.00,,CLR,0.00,VWS V13.01,2013-07-03 10:16:00,
2013-07-03 06:21:00,54.4,50.6,30.10,North,5,0.0,1.0,87,0.00,,CLR,0.00,VWS V13.01,2013-07-03 10:21:00,
2013-07-03 06:26:00,54.4,50.6,30.10,North,5,1.0,1.0,87,0.00,,CLR,0.00,VWS V13.01,2013-07-03 10:26:00,
2013-07-03 06:31:00,54.4,50.6,30.10,North,5,0.0,2.0,87,0.00,,CLR,0.00,VWS V13.01,2013-07-03 10:31:00,
2013-07-03 06:36:00,54.5,50.7,30.10,North,5,0.0,1.0,87,0.00,,CLR,0.00,VWS V13.01,2013-07-03 10:36:00,
2013-07-03 06:41:00,54.6,51.1,30.11,North,5,0.0,1.0,88,0.00,,CLR,0.00,VWS V13.01,2013-07-03 10:41:00,
2013-07-03 06:46:00,54.8,51.3,30.11,North,5,0.0,1.0,88,0.00,,CLR,0.00,VWS V13.01,2013-07-03 10:46:00,
2013-07-03 06:51:00,55.0,51.5,30.11,North,360,0.0,2.0,88,0.00,,CLR,0.00,VWS V13.01,2013-07-03 10:51:00,
2013-07-03 06:55:00,55.2,51.7,30.11,North,360,0.0,2.0,88,0.00,,CLR,0.00,VWS V13.01,2013-07-03 10:55:00,
2013-07-03 06:58:00,55.3,51.8,30.11,North,360,0.0,1.0,88,0.00,,CLR,0.00,VWS V13.01,2013-07-03 10:58:00,
2013-07-03 07:03:00,55.5,51.7,30.11,North,360,0.0,1.0,87,0.00,,CLR,0.00,VWS V13.01,2013-07-03 11:03:00,
2013-07-03 07:08:00,55.7,52.2,30.10,North,360,0.0,1.0,88,0.00,,CLR,0.00,VWS V13.01,2013-07-03 11:08:00,
2013-07-03 07:11:00,55.9,52.4,30.10,North,360,0.0,1.0,88,0.00,,CLR,0.00,VWS V13.01,2013-07-03 11:11:00,
2013-07-03 07:16:00,56.2,52.4,30.10,North,360,1.0,2.0,87,0.00,,CLR,0.00,VWS V13.01,2013-07-03 11:16:00,
2013-07-03 07:19:00,56.4,52.9,30.11,North,360,0.0,2.0,88,0.00,,CLR,0.00,VWS V13.01,2013-07-03 11:19:00,
2013-07-03 07:23:00,56.6,52.8,30.11,North,360,0.0,0.0,87,0.00,,CLR,0.00,VWS V13.01,2013-07-03 11:23:00,
2013-07-03 07:25:00,56.7,52.9,30.11,North,360,0.0,0.0,87,0.00,,CLR,0.00,VWS V13.01,2013-07-03 11:25:00,
2013-07-03 07:30:00,57.0,53.2,30.10,North,360,0.0,1.0,87,0.00,,CLR,0.00,VWS V13.01,2013-07-03 11:30:00,
2013-07-03 07:35:00,57.5,53.7,30.11,North,360,0.0,0.0,87,0.00,,CLR,0.00,VWS V13.01,2013-07-03 11:35:00,
2013-07-03 07:42:00,58.0,53.8,30.11,North,360,0.0,1.0,86,0.00,,CLR,0.00,VWS V13.01,2013-07-03 11:42:00,
2013-07-03 07:46:00,58.4,54.2,30.11,North,360,0.0,1.0,86,0.00,,CLR,0.00,VWS V13.01,2013-07-03 11:46:00,
2013-07-03 07:51:00,59.0,54.5,30.11,North,360,0.0,1.0,85,0.00,,CLR,0.00,VWS V13.01,2013-07-03 11:51:00,
2013-07-03 07:56:00,59.7,55.2,30.11,North,360,0.0,0.0,85,0.00,,CLR,0.00,VWS V13.01,2013-07-03 11:56:00,
2013-07-03 07:59:00,60.0,55.2,30.11,NNE,32,0.0,2.0,84,0.00,,CLR,0.00,VWS V13.01,2013-07-03 11:59:00,
2013-07-03 08:02:00,60.5,55.3,30.11,NE,46,0.0,2.0,83,0.00,,CLR,0.00,VWS V13.01,2013-07-03 12:02:00,
2013-07-03 08:07:00,61.3,55.8,30.12,NE,34,0.0,1.0,82,0.00,,CLR,0.00,VWS V13.01,2013-07-03 12:07:00,
2013-07-03 08:12:00,62.0,55.8,30.11,NE,47,0.0,2.0,80,0.00,,CLR,0.00,VWS V13.01,2013-07-03 12:12:00,
2013-07-03 08:13:00,62.3,56.1,30.11,NE,50,2.0,2.0,80,0.00,,CLR,0.00,VWS V13.01,2013-07-03 12:13:00,
2013-07-03 08:18:00,62.7,56.1,30.12,NE,36,0.0,3.0,79,0.00,,CLR,0.00,VWS V13.01,2013-07-03 12:18:00,
2013-07-03 08:21:00,63.0,56.4,30.12,NE,48,0.0,2.0,79,0.00,,CLR,0.00,VWS V13.01,2013-07-03 12:21:00,
2013-07-03 08:26:00,63.6,57.0,30.12,ENE,77,1.0,2.0,79,0.00,,CLR,0.00,VWS V13.01,2013-07-03 12:26:00,
2013-07-03 08:32:00,64.0,57.0,30.12,East,95,3.0,3.0,78,0.00,,CLR,0.00,VWS V13.01,2013-07-03 12:32:00,
2013-07-03 08:37:00,64.3,57.3,30.12,East,90,1.0,6.0,78,0.00,,CLR,0.00,VWS V13.01,2013-07-03 12:37:00,
2013-07-03 08:42:00,64.9,57.5,30.12,ENE,65,2.0,6.0,77,0.00,,CLR,0.00,VWS V13.01,2013-07-03 12:42:00,
2013-07-03 08:46:00,65.3,57.2,30.12,East,90,3.0,6.0,75,0.00,,CLR,0.00,VWS V13.01,2013-07-03 12:46:00,
2013-07-03 08:51:00,65.3,56.8,30.12,NE,55,2.0,5.0,74,0.00,,CLR,0.00,VWS V13.01,2013-07-03 12:51:00,
2013-07-03 08:57:00,64.8,56.7,30.12,ENE,72,2.0,5.0,75,0.00,,CLR,0.00,VWS V13.01,2013-07-03 12:57:00,
2013-07-03 09:02:00,64.6,56.9,30.12,East,88,1.0,5.0,76,0.00,,CLR,0.00,VWS V13.01,2013-07-03 13:02:00,
2013-07-03 09:07:00,64.5,56.8,30.12,ENE,65,1.0,4.0,76,0.00,,CLR,0.00,VWS V13.01,2013-07-03 13:07:00,
2013-07-03 09:12:00,64.5,57.1,30.12,East,100,2.0,3.0,77,0.00,,CLR,0.00,VWS V13.01,2013-07-03 13:12:00,
2013-07-03 09:18:00,65.0,58.0,30.12,ENE,75,0.0,2.0,78,0.00,,CLR,0.00,VWS V13.01,2013-07-03 13:18:00,
2013-07-03 09:23:00,65.7,57.9,30.12,ENE,59,0.0,2.0,76,0.00,,CLR,0.00,VWS V13.01,2013-07-03 13:23:00,
2013-07-03 09:25:00,66.1,58.0,30.12,East,91,2.0,3.0,75,0.00,,CLR,0.00,VWS V13.01,2013-07-03 13:25:00,
2013-07-03 09:30:00,66.5,57.6,30.12,ENE,74,2.0,6.0,73,0.00,,CLR,0.00,VWS V13.01,2013-07-03 13:30:00,
2013-07-03 09:35:00,66.5,58.3,30.12,East,84,5.0,6.0,75,0.00,,CLR,0.00,VWS V13.01,2013-07-03 13:35:00,
2013-07-03 09:37:00,66.6,57.7,30.12,East,89,1.0,6.0,73,0.00,,CLR,0.00,VWS V13.01,2013-07-03 13:37:00,
2013-07-03 09:42:00,67.1,58.2,30.12,NE,52,1.0,5.0,73,0.00,,CLR,0.00,VWS V13.01,2013-07-03 13:42:00,
2013-07-03 09:47:00,67.5,57.8,30.12,ENE,65,1.0,4.0,71,0.00,,CLR,0.00,VWS V13.01,2013-07-03 13:47:00,
2013-07-03 09:52:00,68.1,58.3,30.12,NE,55,2.0,6.0,71,0.00,,CLR,0.00,VWS V13.01,2013-07-03 13:52:00,
2013-07-03 09:57:00,68.4,58.2,30.12,ENE,69,4.0,9.0,70,0.00,,CLR,0.00,VWS V13.01,2013-07-03 13:57:00,
2013-07-03 10:03:00,68.6,58.4,30.12,East,96,6.0,7.0,70,0.00,,CLR,0.00,VWS V13.01,2013-07-03 14:03:00,
2013-07-03 10:06:00,68.6,59.2,30.12,East,99,6.0,9.0,72,0.00,,CLR,0.00,VWS V13.01,2013-07-03 14:06:00,
2013-07-03 10:10:00,68.2,58.8,30.12,East,101,7.0,9.0,72,0.00,,CLR,0.00,VWS V13.01,2013-07-03 14:10:00,
2013-07-03 10:15:00,68.2,58.5,30.12,East,80,6.0,7.0,71,0.00,,CLR,0.00,VWS V13.01,2013-07-03 14:15:00,
2013-07-03 10:17:00,68.2,58.5,30.12,East,92,9.0,9.0,71,0.00,,CLR,0.00,VWS V13.01,2013-07-03 14:17:00,
2013-07-03 10:22:00,67.8,58.8,30.12,ESE,104,8.0,11.0,73,0.00,,CLR,0.00,VWS V13.01,2013-07-03 14:22:00,
2013-07-03 10:27:00,67.7,58.4,30.12,East,92,6.0,13.0,72,0.00,,CLR,0.00,VWS V13.01,2013-07-03 14:27:00,
2013-07-03 10:30:00,67.8,58.8,30.12,East,101,8.0,10.0,73,0.00,,CLR,0.00,VWS V13.01,2013-07-03 14:30:00,
2013-07-03 10:35:00,67.7,58.4,30.12,East,95,5.0,11.0,72,0.00,,CLR,0.00,VWS V13.01,2013-07-03 14:35:00,
2013-07-03 10:40:00,68.1,58.7,30.12,East,92,3.0,8.0,72,0.00,,CLR,0.00,VWS V13.01,2013-07-03 14:40:00,
2013-07-03 10:41:00,68.2,58.5,30.12,East,84,2.0,8.0,71,0.00,,CLR,0.00,VWS V13.01,2013-07-03 14:41:00,
2013-07-03 10:46:00,68.8,59.0,30.12,ESE,105,1.0,8.0,71,0.00,,CLR,0.00,VWS V13.01,2013-07-03 14:46:00,
2013-07-03 10:51:00,69.6,58.6,30.12,ESE,105,5.0,6.0,68,0.00,,CLR,0.00,VWS V13.01,2013-07-03 14:51:00,
2013-07-03 10:57:00,69.7,59.9,30.12,ESE,103,12.0,12.0,71,0.00,,CLR,0.00,VWS V13.01,2013-07-03 14:57:00,
2013-07-03 10:58:00,69.5,59.3,30.12,ESE,104,4.0,12.0,70,0.00,,CLR,0.00,VWS V13.01,2013-07-03 14:58:00,
2013-07-03 11:03:00,68.7,58.5,30.12,East,100,5.0,10.0,70,0.00,,CLR,0.00,VWS V13.01,2013-07-03 15:03:00,
2013-07-03 11:05:00,68.4,59.0,30.12,ESE,102,5.0,10.0,72,0.00,,CLR,0.00,VWS V13.01,2013-07-03 15:05:00,
2013-07-03 11:10:00,67.7,58.7,30.13,East,96,5.0,9.0,73,0.00,,CLR,0.00,VWS V13.01,2013-07-03 15:10:00,
2013-07-03 11:15:00,67.7,59.5,30.13,ESE,104,5.0,9.0,75,0.00,,CLR,0.00,VWS V13.01,2013-07-03 15:15:00,
2013-07-03 11:20:00,67.7,58.7,30.13,East,97,5.0,8.0,73,0.00,,CLR,0.00,VWS V13.01,2013-07-03 15:20:00,
2013-07-03 11:25:00,67.9,59.7,30.12,ENE,73,5.0,9.0,75,0.00,,CLR,0.00,VWS V13.01,2013-07-03 15:25:00,
2013-07-03 11:28:00,68.0,60.2,30.12,ESE,102,7.0,8.0,76,0.00,,CLR,0.00,VWS V13.01,2013-07-03 15:28:00,
2013-07-03 11:34:00,68.1,60.3,30.12,East,96,7.0,9.0,76,0.00,,CLR,0.00,VWS V13.01,2013-07-03 15:34:00,
2013-07-03 11:39:00,68.1,60.3,30.12,East,97,7.0,9.0,76,0.00,,CLR,0.00,VWS V13.01,2013-07-03 15:39:00,
2013-07-03 11:40:00,68.0,60.5,30.12,East,96,7.0,8.0,77,0.00,,CLR,0.00,VWS V13.01,2013-07-03 15:40:00,
2013-07-03 11:46:00,68.2,61.1,30.12,ESE,107,7.0,8.0,78,0.00,,CLR,0.00,VWS V13.01,2013-07-03 15:46:00,
2013-07-03 11:51:00,68.3,60.8,30.12,East,82,7.0,9.0,77,0.00,,CLR,0.00,VWS V13.01,2013-07-03 15:51:00,
2013-07-03 11:52:00,68.2,60.0,30.12,East,100,8.0,9.0,75,0.00,,CLR,0.00,VWS V13.01,2013-07-03 15:52:00,
2013-07-03 11:57:00,68.2,60.7,30.12,East,98,7.0,9.0,77,0.00,,CLR,0.00,VWS V13.01,2013-07-03 15:57:00,
2013-07-03 12:03:00,68.3,61.2,30.12,East,98,6.0,9.0,78,0.00,,CLR,0.00,VWS V13.01,2013-07-03 16:03:00,
2013-07-03 12:08:00,68.6,61.1,30.11,East,94,7.0,9.0,77,0.00,,CLR,0.00,VWS V13.01,2013-07-03 16:08:00,
2013-07-03 12:13:00,68.8,60.9,30.11,ESE,109,7.0,8.0,76,0.00,,CLR,0.00,VWS V13.01,2013-07-03 16:13:00,
2013-07-03 12:18:00,69.0,61.9,30.11,ESE,107,9.0,9.0,78,0.00,,CLR,0.00,VWS V13.01,2013-07-03 16:18:00,
2013-07-03 12:23:00,68.8,62.0,30.11,ESE,105,10.0,10.0,79,0.00,,CLR,0.00,VWS V13.01,2013-07-03 16:23:00,
2013-07-03 12:28:00,68.9,62.1,30.11,ESE,103,8.0,10.0,79,0.00,,CLR,0.00,VWS V13.01,2013-07-03 16:28:00,
2013-07-03 12:33:00,68.8,62.4,30.11,ESE,103,7.0,9.0,80,0.00,,CLR,0.00,VWS V13.01,2013-07-03 16:33:00,
2013-07-03 12:39:00,68.9,62.8,30.11,ESE,105,5.0,8.0,81,0.00,,CLR,0.00,VWS V13.01,2013-07-03 16:39:00,
2013-07-03 12:44:00,69.0,62.6,30.11,ESE,105,5.0,8.0,80,0.00,,CLR,0.00,VWS V13.01,2013-07-03 16:44:00,
2013-07-03 12:49:00,69.1,62.7,30.11,ESE,105,4.0,7.0,80,0.00,,CLR,0.00,VWS V13.01,2013-07-03 16:49:00,
2013-07-03 12:54:00,69.6,62.4,30.11,ESE,103,5.0,7.0,78,0.00,,CLR,0.00,VWS V13.01,2013-07-03 16:54:00,
2013-07-03 12:59:00,69.8,62.6,30.11,ESE,107,5.0,7.0,78,0.00,,CLR,0.00,VWS V13.01,2013-07-03 16:59:00,
2013-07-03 13:04:00,70.2,63.4,30.11,ESE,110,5.0,7.0,79,0.00,,FEW120,0.00,VWS V13.01,2013-07-03 17:04:00,
2013-07-03 13:09:00,70.4,63.2,30.11,ESE,107,4.0,5.0,78,0.00,,FEW120,0.00,VWS V13.01,2013-07-03 17:09:00,
2013-07-03 13:14:00,70.4,63.2,30.11,ESE,105,2.0,4.0,78,0.00,,FEW120,0.00,VWS V13.01,2013-07-03 17:14:00,
2013-07-03 13:19:00,70.5,64.0,30.11,ESE,105,3.0,3.0,80,0.00,,FEW120,0.00,VWS V13.01,2013-07-03 17:19:00,
2013-07-03 13:24:00,71.3,64.1,30.11,ESE,106,2.0,4.0,78,0.00,,FEW120,0.00,VWS V13.01,2013-07-03 17:24:00,
2013-07-03 13:30:00,72.0,64.8,30.10,ESE,113,3.0,5.0,78,0.00,,FEW120,0.00,VWS V13.01,2013-07-03 17:30:00,
2013-07-03 13:35:00,72.1,64.9,30.10,ESE,113,3.0,4.0,78,0.00,,FEW120,0.00,VWS V13.01,2013-07-03 17:35:00,
2013-07-03 13:40:00,72.4,65.2,30.10,ESE,121,4.0,5.0,78,0.00,,FEW120,0.00,VWS V13.01,2013-07-03 17:40:00,
2013-07-03 13:45:00,72.6,65.0,30.10,ESE,115,8.0,9.0,77,0.00,,FEW120,0.00,VWS V13.01,2013-07-03 17:45:00,
2013-07-03 13:51:00,71.7,64.5,30.09,ESE,105,8.0,9.0,78,0.00,,FEW120,0.00,VWS V13.01,2013-07-03 17:51:00,
2013-07-03 13:56:00,70.9,64.1,30.09,East,101,8.0,9.0,79,0.00,,FEW120,0.00,VWS V13.01,2013-07-03 17:56:00,
2013-07-03 14:01:00,70.9,64.4,30.08,ESE,113,8.0,9.0,80,0.00,,FEW120,0.00,VWS V13.01,2013-07-03 18:01:00,
2013-07-03 14:07:00,70.9,64.1,30.09,East,98,9.0,10.0,79,0.00,,CLR,0.00,VWS V13.01,2013-07-03 18:07:00,
2013-07-03 14:12:00,70.7,64.2,30.08,East,100,8.0,9.0,80,0.00,,CLR,0.00,VWS V13.01,2013-07-03 18:12:00,
2013-07-03 14:17:00,70.4,63.9,30.08,ESE,104,5.0,9.0,80,0.00,,CLR,0.00,VWS V13.01,2013-07-03 18:17:00,
2013-07-03 14:22:00,70.6,63.8,30.08,ENE,71,10.0,11.0,79,0.00,,CLR,0.00,VWS V13.01,2013-07-03 18:22:00,
2013-07-03 14:27:00,71.1,63.9,30.08,ESE,107,7.0,11.0,78,0.00,,CLR,0.00,VWS V13.01,2013-07-03 18:27:00,
2013-07-03 14:33:00,71.4,64.2,30.08,ESE,104,9.0,11.0,78,0.00,,CLR,0.00,VWS V13.01,2013-07-03 18:33:00,
2013-07-03 14:38:00,71.3,63.3,30.08,East,96,6.0,10.0,76,0.00,,CLR,0.00,VWS V13.01,2013-07-03 18:38:00,
2013-07-03 14:43:00,71.7,64.1,30.07,East,96,10.0,10.0,77,0.00,,CLR,0.00,VWS V13.01,2013-07-03 18:43:00,
2013-07-03 14:48:00,71.2,63.6,30.08,East,96,8.0,10.0,77,0.00,,CLR,0.00,VWS V13.01,2013-07-03 18:48:00,
2013-07-03 14:53:00,71.2,64.4,30.08,ESE,110,8.0,9.0,79,0.00,,CLR,0.00,VWS V13.01,2013-07-03 18:53:00,
2013-07-03 14:59:00,71.1,64.6,30.07,ESE,104,8.0,9.0,80,0.00,,CLR,0.00,VWS V13.01,2013-07-03 18:59:00,
2013-07-03 15:04:00,71.2,64.7,30.07,ESE,103,9.0,11.0,80,0.00,,CLR,0.00,VWS V13.01,2013-07-03 19:04:00,
2013-07-03 15:09:00,71.3,64.8,30.07,ESE,105,8.0,10.0,80,0.00,,CLR,0.00,VWS V13.01,2013-07-03 19:09:00,
2013-07-03 15:14:00,71.4,64.9,30.07,East,97,7.0,11.0,80,0.00,,CLR,0.00,VWS V13.01,2013-07-03 19:14:00,
2013-07-03 15:19:00,71.6,64.0,30.07,ESE,105,8.0,9.0,77,0.00,,CLR,0.00,VWS V13.01,2013-07-03 19:19:00,
2013-07-03 15:24:00,71.7,64.5,30.07,East,101,9.0,10.0,78,0.00,,CLR,0.00,VWS V13.01,2013-07-03 19:24:00,
2013-07-03 15:29:00,71.9,64.7,30.07,ESE,106,8.0,12.0,78,0.00,,CLR,0.00,VWS V13.01,2013-07-03 19:29:00,
2013-07-03 15:34:00,71.9,64.3,30.07,ESE,103,8.0,10.0,77,0.00,,CLR,0.00,VWS V13.01,2013-07-03 19:34:00,
2013-07-03 15:39:00,71.6,64.4,30.06,ESE,107,9.0,11.0,78,0.00,,CLR,0.00,VWS V13.01,2013-07-03 19:39:00,
2013-07-03 15:44:00,71.1,64.3,30.07,ESE,105,8.0,11.0,79,0.00,,CLR,0.00,VWS V13.01,2013-07-03 19:44:00,
2013-07-03 15:50:00,71.0,63.8,30.07,East,100,8.0,11.0,78,0.00,,CLR,0.00,VWS V13.01,2013-07-03 19:50:00,
2013-07-03 15:55:00,71.3,64.5,30.07,East,92,2.0,9.0,79,0.00,,CLR,0.00,VWS V13.01,2013-07-03 19:55:00,
2013-07-03 16:00:00,71.7,64.1,30.07,ESE,107,5.0,9.0,77,0.00,,CLR,0.00,VWS V13.01,2013-07-03 20:00:00,
2013-07-03 16:05:00,71.8,64.6,30.07,ESE,105,9.0,10.0,78,0.00,,CLR,0.00,VWS V13.01,2013-07-03 20:05:00,
2013-07-03 16:10:00,71.7,64.8,30.07,East,98,10.0,11.0,79,0.00,,CLR,0.00,VWS V13.01,2013-07-03 20:10:00,
2013-07-03 16:15:00,71.5,63.5,30.07,ESE,102,9.0,13.0,76,0.00,,CLR,0.00,VWS V13.01,2013-07-03 20:15:00,
2013-07-03 16:20:00,71.3,64.1,30.07,ESE,103,8.0,11.0,78,0.00,,CLR,0.00,VWS V13.01,2013-07-03 20:20:00,
2013-07-03 16:25:00,71.3,64.1,30.07,East,96,7.0,11.0,78,0.00,,CLR,0.00,VWS V13.01,2013-07-03 20:25:00,
2013-07-03 16:30:00,71.4,64.6,30.07,East,101,7.0,10.0,79,0.00,,CLR,0.00,VWS V13.01,2013-07-03 20:30:00,
2013-07-03 16:35:00,71.4,64.6,30.07,ESE,103,8.0,10.0,79,0.00,,CLR,0.00,VWS V13.01,2013-07-03 20:35:00,
2013-07-03 16:41:00,71.3,64.1,30.07,East,95,7.0,10.0,78,0.00,,CLR,0.00,VWS V13.01,2013-07-03 20:41:00,
2013-07-03 16:46:00,71.5,64.7,30.07,East,94,9.0,10.0,79,0.00,,CLR,0.00,VWS V13.01,2013-07-03 20:46:00,
2013-07-03 16:51:00,71.4,64.9,30.06,ESE,102,10.0,10.0,80,0.00,,CLR,0.00,VWS V13.01,2013-07-03 20:51:00,
2013-07-03 16:57:00,71.3,63.7,30.07,East,96,6.0,11.0,77,0.00,,CLR,0.00,VWS V13.01,2013-07-03 20:57:00,
2013-07-03 17:02:00,71.5,64.3,30.07,East,98,8.0,9.0,78,0.00,,CLR,0.00,VWS V13.01,2013-07-03 21:02:00,
2013-07-03 17:07:00,71.5,64.7,30.07,East,89,9.0,10.0,79,0.00,,CLR,0.00,VWS V13.01,2013-07-03 21:07:00,
2013-07-03 17:12:00,71.5,64.7,30.06,East,101,10.0,10.0,79,0.00,,CLR,0.00,VWS V13.01,2013-07-03 21:12:00,
2013-07-03 17:17:00,71.5,64.3,30.06,East,92,8.0,10.0,78,0.00,,CLR,0.00,VWS V13.01,2013-07-03 21:17:00,
2013-07-03 17:22:00,71.6,64.4,30.06,East,101,5.0,8.0,78,0.00,,CLR,0.00,VWS V13.01,2013-07-03 21:22:00,
2013-07-03 17:28:00,71.2,64.4,30.06,East,98,8.0,11.0,79,0.00,,CLR,0.00,VWS V13.01,2013-07-03 21:28:00,
2013-07-03 17:33:00,71.0,64.5,30.06,ESE,105,8.0,9.0,80,0.00,,CLR,0.00,VWS V13.01,2013-07-03 21:33:00,
2013-07-03 17:38:00,71.1,64.6,30.06,East,92,7.0,9.0,80,0.00,,CLR,0.00,VWS V13.01,2013-07-03 21:38:00,
2013-07-03 17:43:00,71.3,63.7,30.06,East,101,9.0,10.0,77,0.00,,CLR,0.00,VWS V13.01,2013-07-03 21:43:00,
2013-07-03 17:48:00,71.2,64.4,30.06,East,93,8.0,11.0,79,0.00,,CLR,0.00,VWS V13.01,2013-07-03 21:48:00,
2013-07-03 17:53:00,71.2,64.0,30.05,ESE,102,5.0,12.0,78,0.00,,CLR,0.00,VWS V13.01,2013-07-03 21:53:00,
2013-07-03 17:59:00,71.4,63.8,30.05,East,86,5.0,12.0,77,0.00,,CLR,0.00,VWS V13.01,2013-07-03 21:59:00,
2013-07-03 18:04:00,71.2,64.0,30.05,East,100,8.0,11.0,78,0.00,,CLR,0.00,VWS V13.01,2013-07-03 22:04:00,
2013-07-03 18:09:00,71.4,63.8,30.05,ENE,59,7.0,8.0,77,0.00,,CLR,0.00,VWS V13.01,2013-07-03 22:09:00,
2013-07-03 18:15:00,71.6,64.0,30.05,East,89,3.0,10.0,77,0.00,,CLR,0.00,VWS V13.01,2013-07-03 22:15:00,
2013-07-03 18:20:00,71.7,64.5,30.05,ESE,112,7.0,9.0,78,0.00,,CLR,0.00,VWS V13.01,2013-07-03 22:20:00,
2013-07-03 18:26:00,71.6,64.8,30.04,East,97,6.0,11.0,79,0.00,,CLR,0.00,VWS V13.01,2013-07-03 22:26:00,
2013-07-03 18:31:00,71.5,64.7,30.04,ENE,71,7.0,13.0,79,0.00,,CLR,0.00,VWS V13.01,2013-07-03 22:31:00,
2013-07-03 18:37:00,71.3,64.8,30.04,ESE,103,3.0,9.0,80,0.00,,CLR,0.00,VWS V13.01,2013-07-03 22:37:00,
2013-07-03 18:42:00,71.2,64.4,30.03,East,101,6.0,10.0,79,0.00,,CLR,0.00,VWS V13.01,2013-07-03 22:42:00,
2013-07-03 18:47:00,70.9,64.1,30.03,ESE,103,4.0,11.0,79,0.00,,CLR,0.00,VWS V13.01,2013-07-03 22:47:00,
2013-07-03 18:52:00,71.1,64.3,30.04,East,96,6.0,8.0,79,0.00,,CLR,0.00,VWS V13.01,2013-07-03 22:52:00,
2013-07-03 18:57:00,71.0,63.8,30.04,ENE,78,1.0,9.0,78,0.00,,CLR,0.00,VWS V13.01,2013-07-03 22:57:00,
2013-07-03 19:02:00,71.0,63.8,30.04,ESE,104,4.0,7.0,78,0.00,,CLR,0.00,VWS V13.01,2013-07-03 23:02:00,
2013-07-03 19:08:00,70.8,64.0,30.04,East,96,5.0,8.0,79,0.00,,CLR,0.00,VWS V13.01,2013-07-03 23:08:00,
2013-07-03 19:13:00,70.7,63.9,30.05,East,96,1.0,7.0,79,0.00,,CLR,0.00,VWS V13.01,2013-07-03 23:13:00,
2013-07-03 19:18:00,70.5,63.7,30.04,NE,51,2.0,8.0,79,0.00,,CLR,0.00,VWS V13.01,2013-07-03 23:18:00,
2013-07-03 19:23:00,70.4,63.9,30.04,East,87,3.0,8.0,80,0.00,,CLR,0.00,VWS V13.01,2013-07-03 23:23:00,
2013-07-03 19:28:00,69.9,63.5,30.04,ENE,76,2.0,10.0,80,0.00,,CLR,0.00,VWS V13.01,2013-07-03 23:28:00,
2013-07-03 19:33:00,69.5,63.1,30.05,NE,50,4.0,8.0,80,0.00,,CLR,0.00,VWS V13.01,2013-07-03 23:33:00,
2013-07-03 19:38:00,69.2,63.1,30.04,NE,54,2.0,5.0,81,0.00,,CLR,0.00,VWS V13.01,2013-07-03 23:38:00,
2013-07-03 19:43:00,69.0,62.9,30.05,NE,56,2.0,8.0,81,0.00,,CLR,0.00,VWS V13.01,2013-07-03 23:43:00,
2013-07-03 19:49:00,68.8,62.7,30.04,ENE,76,1.0,6.0,81,0.00,,CLR,0.00,VWS V13.01,2013-07-03 23:49:00,
2013-07-03 19:54:00,68.7,63.0,30.05,ESE,103,4.0,5.0,82,0.00,,CLR,0.00,VWS V13.01,2013-07-03 23:54:00,
2013-07-03 19:59:00,68.6,62.5,30.05,ENE,59,2.0,5.0,81,0.00,,CLR,0.00,VWS V13.01,2013-07-03 23:59:00,
2013-07-03 20:04:00,68.4,62.7,30.04,ENE,78,1.0,4.0,82,0.00,,CLR,0.00,VWS V13.01,2013-07-04 00:04:00,
2013-07-03 20:10:00,68.3,62.6,30.04,ENE,76,2.0,4.0,82,0.00,,CLR,0.00,VWS V13.01,2013-07-04 00:10:00,
2013-07-03 20:15:00,68.2,62.5,30.04,ENE,78,2.0,8.0,82,0.00,,CLR,0.00,VWS V13.01,2013-07-04 00:15:00,
2013-07-03 20:20:00,68.0,62.7,30.05,NE,54,3.0,8.0,83,0.00,,CLR,0.00,VWS V13.01,2013-07-04 00:20:00,
2013-07-03 20:25:00,67.6,62.3,30.04,ESE,111,4.0,8.0,83,0.00,,CLR,0.00,VWS V13.01,2013-07-04 00:25:00,
2013-07-03 20:31:00,67.4,62.4,30.05,ENE,74,3.0,6.0,84,0.00,,CLR,0.00,VWS V13.01,2013-07-04 00:31:00,
2013-07-03 20:36:00,67.3,63.0,30.05,East,93,2.0,7.0,86,0.00,,CLR,0.00,VWS V13.01,2013-07-04 00:36:00,
2013-07-03 20:41:00,67.2,62.9,30.05,East,100,3.0,6.0,86,0.00,,CLR,0.00,VWS V13.01,2013-07-04 00:41:00,
2013-07-03 20:47:00,67.1,62.8,30.05,East,92,5.0,5.0,86,0.00,,CLR,0.00,VWS V13.01,2013-07-04 00:47:00,
2013-07-03 20:52:00,67.1,62.5,30.04,NE,54,4.0,6.0,85,0.00,,CLR,0.00,VWS V13.01,2013-07-04 00:52:00,
2013-07-03 20:58:00,67.1,62.8,30.04,NE,50,3.0,9.0,86,0.00,,CLR,0.00,VWS V13.01,2013-07-04 00:58:00,
2013-07-03 21:03:00,67.1,62.8,30.03,ENE,65,3.0,9.0,86,0.00,,CLR,0.00,VWS V13.01,2013-07-04 01:03:00,
2013-07-03 21:08:00,67.1,62.8,30.03,East,91,7.0,8.0,86,0.00,,CLR,0.00,VWS V13.01,2013-07-04 01:08:00,
2013-07-03 21:13:00,67.0,62.7,30.04,ENE,70,1.0,7.0,86,0.00,,CLR,0.00,VWS V13.01,2013-07-04 01:13:00,
2013-07-03 21:18:00,67.0,62.7,30.04,East,98,3.0,4.0,86,0.00,,CLR,0.00,VWS V13.01,2013-07-04 01:18:00,
2013-07-03 21:24:00,67.0,63.0,30.04,ESE,103,4.0,6.0,87,0.00,,CLR,0.00,VWS V13.01,2013-07-04 01:24:00,
2013-07-03 21:30:00,67.0,63.0,30.05,ESE,103,7.0,8.0,87,0.00,,CLR,0.00,VWS V13.01,2013-07-04 01:30:00,
2013-07-03 21:35:00,66.9,63.2,30.05,East,94,7.0,9.0,88,0.00,,CLR,0.00,VWS V13.01,2013-07-04 01:35:00,
2013-07-03 21:40:00,66.8,63.1,30.05,East,101,8.0,9.0,88,0.00,,CLR,0.00,VWS V13.01,2013-07-04 01:40:00,
2013-07-03 21:45:00,66.7,63.7,30.05,East,94,6.0,13.0,90,0.00,,CLR,0.00,VWS V13.01,2013-07-04 01:45:00,
2013-07-03 21:50:00,66.5,64.1,30.05,East,89,9.0,11.0,92,0.00,,CLR,0.00,VWS V13.01,2013-07-04 01:50:00,
2013-07-03 21:55:00,66.7,64.9,30.05,ESE,111,12.0,12.0,94,0.00,,CLR,0.00,VWS V13.01,2013-07-04 01:55:00,
2013-07-03 22:00:00,67.4,65.6,30.05,East,96,9.0,13.0,94,0.00,,CLR,0.00,VWS V13.01,2013-07-04 02:00:00,
2013-07-03 22:05:00,67.5,65.4,30.05,ESE,105,10.0,16.0,93,0.00,,CLR,0.00,VWS V13.01,2013-07-04 02:05:00,
2013-07-03 22:11:00,67.4,65.6,30.05,ESE,107,11.0,13.0,94,0.00,,CLR,0.00,VWS V13.01,2013-07-04 02:11:00,
2013-07-03 22:16:00,67.6,65.5,30.05,ESE,108,10.0,11.0,93,0.00,,CLR,0.00,VWS V13.01,2013-07-04 02:16:00,
2013-07-03 22:21:00,67.9,65.8,30.06,ESE,119,10.0,11.0,93,0.00,,CLR,0.00,VWS V13.01,2013-07-04 02:21:00,
2013-07-03 22:26:00,68.1,65.1,30.05,ESE,113,8.0,12.0,90,0.00,,CLR,0.00,VWS V13.01,2013-07-04 02:26:00,
2013-07-03 22:31:00,68.2,65.2,30.06,ESE,121,10.0,12.0,90,0.00,,CLR,0.00,VWS V13.01,2013-07-04 02:31:00,
2013-07-03 22:37:00,68.0,65.3,30.05,East,87,5.0,11.0,91,0.00,,CLR,0.00,VWS V13.01,2013-07-04 02:37:00,
2013-07-03 22:42:00,67.7,65.0,30.05,East,79,0.0,5.0,91,0.00,,CLR,0.00,VWS V13.01,2013-07-04 02:42:00,
2013-07-03 22:47:00,67.5,64.8,30.05,ENE,72,0.0,3.0,91,0.00,,CLR,0.00,VWS V13.01,2013-07-04 02:47:00,
2013-07-03 22:52:00,67.4,64.7,30.05,East,90,0.0,2.0,91,0.00,,CLR,0.00,VWS V13.01,2013-07-04 02:52:00,
2013-07-03 22:57:00,67.3,64.6,30.05,ENE,78,0.0,2.0,91,0.00,,CLR,0.00,VWS V13.01,2013-07-04 02:57:00,
2013-07-03 23:02:00,67.2,64.5,30.05,ENE,78,0.0,1.0,91,0.00,,FEW120,0.00,VWS V13.01,2013-07-04 03:02:00,
2013-07-03 23:08:00,67.1,64.4,30.05,ENE,78,0.0,0.0,91,0.00,,FEW120,0.00,VWS V13.01,2013-07-04 03:08:00,
2013-07-03 23:13:00,67.1,64.7,30.05,ESE,114,0.0,0.0,92,0.00,,FEW120,0.00,VWS V13.01,2013-07-04 03:13:00,
2013-07-03 23:18:00,67.4,65.0,30.05,ESE,111,0.0,0.0,92,0.00,,FEW120,0.00,VWS V13.01,2013-07-04 03:18:00,
2013-07-03 23:23:00,67.6,65.2,30.05,East,92,6.0,8.0,92,0.00,,FEW120,0.00,VWS V13.01,2013-07-04 03:23:00,
2013-07-03 23:28:00,67.8,65.7,30.05,ESE,110,7.0,8.0,93,0.00,,FEW120,0.00,VWS V13.01,2013-07-04 03:28:00,
2013-07-03 23:33:00,67.8,65.4,30.04,East,99,6.0,7.0,92,0.00,,FEW120,0.00,VWS V13.01,2013-07-04 03:33:00,
2013-07-03 23:39:00,68.0,65.6,30.04,ESE,111,7.0,7.0,92,0.00,,FEW120,0.00,VWS V13.01,2013-07-04 03:39:00,
2013-07-03 23:44:00,68.1,65.4,30.04,ESE,113,7.0,8.0,91,0.00,,FEW120,0.00,VWS V13.01,2013-07-04 03:44:00,
2013-07-03 23:49:00,68.2,65.2,30.04,ESE,105,4.0,7.0,90,0.00,,FEW120,0.00,VWS V13.01,2013-07-04 03:49:00,
2013-07-03 23:54:00,68.3,65.3,30.05,East,96,2.0,6.0,90,0.00,,FEW120,0.00,VWS V13.01,2013-07-04 03:54:00,
2013-07-03 23:59:00,68.2,65.2,30.05,East,92,0.0,5.0,90,0.00,,FEW120,0.00,VWS V13.01,2013-07-04 03:59:00,